Location: Most
(50.5133°N, 13.6207°E)
Time: 22:24:27
(UTC+02:00)

ISS - Pass Details

Date: 06 October 2021
Orbit: 418 x 423 km, 51.6° (Epoch: 15 October)

Event Time Altitude Azimuth Distance (km) Brightness Sun altitude
Rises 19:34:17 0° 281° (WNW) 2,366 2.2 -10.6°
Reaches altitude 10° 19:37:02 10° 257° (WSW) 1,498 0.4 -11.1°
Maximum altitude 19:39:01 15° 221° (SW) 1,233 -0.9 -11.4°
Drops below altitude 10° 19:41:00 10° 185° (S) 1,494 -1.0 -11.7°
Sets 19:43:44 0° 161° (SSE) 2,354 -0.2 -12.1°
Enters shadow 19:43:44 - 161° (SSE) 2,354 -0.2 -12.1°
